TITAN 3C TRANSTAGE DEB, 43449

Orbit data source: Space-Track

TITAN 3C TRANSTAGE DEB, 43449 is space debris originally from a launch on Sun, 09 Feb 1969 UTC launched from the Air Force Eastern Test Range (AFETR). Debris objects in space refer to the collection of defunct objects orbiting the Earth. Examples of debris include non-operational satellites, rocket bodies, and fragments generated from explosions, collisions, or faulty payload assembly.

Loading next visibility...
TITAN 3C TRANSTAGE DEB details
Identifier
43449, 1969-013J
Orbit
Active
Last TLE update1 day ago
Origin
Flag of USUSAF SMC (US)
ManufacturerMartin Marietta
MissionSpacecraft
Bus & MotorUnknown
MassUnknown
Launch date (UTC)
1969-02-09 (56 years ago)
Launch vehicleUnknown
Launch site
Air Force Eastern Test Range (AFETR)
Object type
Payload
Rocket body
Debris
Shape & HBRUnknown
Radar Cross SectionRCS unknown

Expand to show TLE details & history

TLE from 1 day ago
0 TITAN 3C TRANSTAGE DEB
1 43449U 69013J   24324.91169163 -.00000214  00000-0  00000-0 0  9992
2 43449   0.3133 335.6787 0130401 163.3082 222.0170  0.96591386 23294
Epoch: 2024-11-19T21:52Z
Definitive object data (Epoch: 2024-11-19T21:52:50.156Z)
Latitude0.14643°
Longitude-27.6247°
Altitude37,270.187 km
Speed3.007 km/s
True Right ascension23h 59m 59s
True Declination0° 08' 47"
Sunlit
Object was in daylight at TLE epoch
Visualization TLE readout
Latitude-0.00264°
Longitude126.81675°
Altitude36,309.11 km
Speed3.075 km/s
Apparent Right ascension10h 41m 42s
Apparent Declination-5° 45' 20"
Sunlit
Object is in daylight
Visualization observer readout
Local Sidereal Time06:20:28
Azimuth110.812° ESE
Elevation14.739°
Doppler factor1
Orbital elements
Apogee altitude37,415.739 km
Perigee altitude36,288.288 km
Semi-major axis43,230.15 km
Eccentricity0.0130401
Inclination0.3133°
RAAN335.6787°
Arg. of periapsis163.3082°
True anomaly221.02882°
Mean anomaly222.017°
Eccentric anomaly221.52172°
Mean motion0.24147 °/min
BSTARUnknown
Orbital period1490.87 mins
Loading maneuver chart data...

TITAN 3C TRANSTAGE DEB Visibility forecast

Observer location: undefined°, undefined

Span
Click to sort rows by Start time (UTC) header in descending order
Start Az.
Max El. time (UTC)
Max El. Az.
Max El.
End time (UTC)
End Az.
1440 mins2024-11-21 09:17:27.712Z110.826° ESE2024-11-22 09:17:27.712Z121.941° SE22.605°2024-11-22 09:17:27.712Z121.941° SE
|